Simultaneous Nadir Overpasses (SNOs) Predictions

Prediction of SNOs between AQUA and NPP Satellite Orbit:

Table of predicted SNOs for the next 14.0 days since TLE Epoch: 9/24/2022
Index Date (AQUA) Time (AQUA) Lat,Lon (AQUA) SZA (AQUA ) Date (NPP) Time (NPP) Lat,Lon (NPP) SZA (NPP ) Distance(km) Time Diff (sec)
1 09/26/2022 13:35:31 75.01,-146.10 98.83 09/26/2022 13:34:18 75.13,-147.03 99.04 30.02 73
2 09/26/2022 14:23:33 -78.92, 36.75 85.74 09/26/2022 14:23:35 -78.93, 36.85 85.76 2.19 2
3 09/29/2022 05:49:53 78.78, -15.59 95.41 09/29/2022 05:49:49 78.78, -15.64 95.43 1.09 4
4 09/29/2022 06:39:11 -79.13, 154.14 85.05 09/29/2022 06:40:25 -79.13, 154.05 85.09 1.89 74
5 10/01/2022 21:16:12 -78.73, -67.44 83.56 10/01/2022 21:16:02 -78.72, -67.56 83.53 2.77 10
6 10/01/2022 22:05:28 79.10, 102.37 95.97 10/01/2022 22:06:36 79.09, 102.24 95.94 2.76 68
7 10/04/2022 12:42:27 78.76,-118.86 97.37 10/04/2022 12:42:11 78.75,-118.92 97.40 1.32 16
8 10/04/2022 13:31:45 -79.11, 50.87 83.09 10/04/2022 13:32:47 -79.11, 50.79 83.12 1.80 62
9 10/07/2022 04:08:40 -78.87,-169.76 81.82 10/07/2022 04:08:18 -78.87,-169.66 81.83 2.27 22



Historial Predications of SNOs between AQUA and NPP
